Skip Navigation Links
NOAA logo - Click to go to the NOAA homepage
NOAA's National Weather Service
Alaska Aviation Weather Unit
  NWS logo - Click to go to the NWS homepage
Left Navbar Graphic     19 AKDT = 03 GMT

   
NOAA is celebrating 200 years of science, service, and stewardship. Visit the NOAA 200th celebration Web site to learn more.
USA.gov is the U.S. Government's official Web portal to all Federal, state and local government Web resources and services.
Facebook
NWS on Facebook

Important Change Regarding the AAWU Web Presence

 

Over the last several months, the AAWU has been working to navigate its webpages to a nationally supported server. Security, as well as other needs, have necessitated the change.  In the process, we have made an effort to enhance the functionality of our website, as well as some of our products. As of June 20, 2017, aawu.arh.noaa.gov will be discontinued. The new AAWU web address is weather.gov/aawu. It is now live and will run in-parallel with the old site until it is discontinued. Please send any feedback or questions regarding the new webpages to nws.ar.aawu.webauthors@noaa.gov.  Thank you for your patience during this time of transition.
AAWU Home :: Display TAF Add Bookmark
TAF PADQ 250059Z 2501/2524 29013G21KT P6SM SCT030 BKN060
     FM250600 25007KT P6SM SCT040=
METAR PADQ 242153Z 20017KT 10SM FEW020 BKN060 BKN110 BKN180 14/04
     A2995=

METAR PADQ 242253Z 20011G20KT 10SM FEW020 BKN060 BKN110 BKN180 14/04
     A2996=

METAR PADQ 242353Z 23013KT 10SM SCT049 14/04 A2997=

PADQ 250006Z 30013G25KT 10SM BKN047 13/04 A2997=

PADQ 250006Z 30013G25KT 10SM BKN047 13/04 A2997 RMK AO2 WSHFT 2346
     T01280044=

METAR PADQ 250053Z 28020G25KT 10SM CLR 13/03 A3000=

METAR PADQ 250153Z AUTO 29016G25KT 10SM FEW060 13/02 A3002=

METAR PADQ 250253Z AUTO 26016G21KT 10SM CLR 12/00 A3005 RMK AO2 SLP176
     60000 T01220000 53026 TSNO=


NOAA's National Weather Service
Alaska Aviation Weather Unit
6930 Sand Lake Road
Anchorage, AK 99502-1845
Disclaimer
Credits
Glossary
Privacy Policy
About Us
Career Opportunities
Contact AAWU Internet Services Site last modified: April, 17th 2012